Date,TemperatureHighF,TemperatureAvgF,TemperatureLowF,DewpointHighF,DewpointAvgF,DewpointLowF,HumidityHigh,HumidityAvg,HumidityLow,PressureMaxIn,PressureMinIn,WindSpeedMaxMPH,WindSpeedAvgMPH,GustSpeedMaxMPH,PrecipitationSumIn
2013-6-1,89.9,78.9,69.3,69.2,66.2,62.2,84,66,41,30.04,29.93,12,1,18,0.00
2013-6-2,85.7,76.5,69.8,70.6,67.0,64.2,91,74,52,29.95,29.81,12,1,14,0.35
2013-6-3,77.9,70.7,67.1,71.2,67.2,64.5,95,89,71,29.87,29.79,7,0,9,0.34
2013-6-4,74.0,65.4,55.3,65.0,47.8,41.2,93,55,31,30.10,29.87,14,2,16,0.34
2013-6-5,68.8,62.1,51.7,57.5,50.3,42.5,93,66,47,30.21,30.10,10,1,10,0.00
2013-6-6,68.4,63.0,58.6,61.1,58.6,56.7,95,86,71,30.14,29.99,8,1,12,0.04
2013-6-7,69.3,64.1,61.0,68.4,47.2,-99.9,97,86,92,30.00,29.55,9,0,11,3.06
2013-6-8,77.7,69.1,58.3,66.5,52.2,-99.9,97,74,61,30.06,29.52,21,2,21,3.42
2013-6-9,64.5,63.3,62.3,62.1,60.7,59.6,92,91,91,30.09,30.06,0,0,0,0.00
2013-6-12,68.3,65.3,64.0,58.3,57.2,54.1,81,75,61,29.86,29.83,0,0,1,0.00
2013-6-13,72.8,66.6,60.2,67.8,60.3,54.5,94,81,64,29.85,29.40,4,1,14,0.98
2013-6-14,72.1,61.4,55.0,58.2,53.7,50.3,93,77,50,29.91,29.46,6,2,21,0.01
2013-6-15,82.4,70.2,58.3,58.4,54.3,49.5,88,61,33,30.02,29.90,5,2,14,0.01
2013-6-16,85.5,72.6,61.3,67.9,60.7,56.6,86,68,44,30.01,29.80,5,1,17,0.00
2013-6-17,89.3,74.8,66.3,68.2,64.9,61.7,93,74,42,29.93,29.83,4,1,17,0.14
2013-6-18,79.0,68.3,64.2,68.3,63.4,61.3,94,85,62,29.91,29.80,6,0,10,0.92
2013-6-19,76.7,67.9,60.1,63.5,54.3,46.8,93,64,38,30.17,29.85,13,1,13,0.92
2013-6-20,78.5,68.1,55.9,59.4,53.8,50.5,92,63,39,30.28,30.17,12,1,12,0.00
2013-6-21,78.3,67.8,57.2,57.8,54.5,48.7,89,65,39,30.33,30.26,7,0,10,0.00
2013-6-22,80.9,69.8,58.0,63.1,57.8,53.1,95,68,42,30.27,30.15,10,0,12,0.00
2013-6-23,84.9,74.0,63.4,71.1,64.7,53.7,93,73,55,30.21,30.08,10,1,13,0.08
2013-6-24,94.3,79.6,71.8,73.6,68.8,59.7,95,72,41,30.09,29.98,13,1,14,0.09
2013-6-25,93.4,80.6,69.1,71.5,66.9,62.8,90,65,42,30.01,29.83,18,1,18,0.00
2013-6-26,91.4,79.9,71.8,73.3,66.2,62.2,92,65,39,29.88,29.78,11,1,13,0.14
2013-6-27,84.1,76.5,71.5,72.5,70.5,68.2,95,82,63,29.83,29.60,11,1,12,0.01
2013-6-28,89.3,78.2,70.8,72.3,68.9,65.6,89,75,47,29.61,29.49,10,1,14,0.05
2013-6-29,84.9,74.9,68.3,71.6,68.4,64.6,94,81,55,29.72,29.51,13,0,13,0.10
2013-6-30,82.6,74.6,68.6,73.1,69.9,65.8,93,86,71,29.92,29.72,7,0,9,0.04